User: anonymous   Login
Location: Newark
(37.8333°N, 119.5000°W)
Time: 09:46:23
(UTC+00:00)
Language:

Explorer 7 - Orbit

View from above orbital plane
View from above orbital plane
View from above satellite
View from above satellite

Ground track
Ground track

The orbit data is extracted from the following two-line orbital elements,

1    22U 59009A   19235.92278673 -.00000047 +00000-0 +19680-4 0  9991
2    22 050.2847 062.5356 0140108 198.2958 161.2920 14.94902288425712
Epoch (UTC): 23 August 2019 22:08:48
Eccentricity: 0.0140108
inclination: 50.2847°
perigee height: 485 km
apogee height: 680 km
right ascension of ascending node: 62.5356°
argument of perigee: 198.2958°
revolutions per day: 14.94902288
mean anomaly at epoch: 161.2920°
orbit number at epoch: 42571

The dashed part of the orbit path shows where the satellite is in the earth's shadow,  

DLR